Orbital Elements at Epoch 2459200.5 (2020-Dec-17.0) TDB
Reference: JPL 18 (heliocentric ecliptic J2000)
Element | Value | Uncertainty (1-sigma) | Units |
e | .1579729031195585 | 3.4463e-08 | |
a | 2.682560367405737 | 1.9178e-08 | au |
q | 2.258788518373183 | 9.6612e-08 | au |
i | 3.114114230400471 | 5.6515e-06 | deg |
node | 334.7635058633574 | 7.6899e-05 | deg |
peri | 99.24452371013703 | 8.0407e-05 | deg |
M | 16.54105027397912 | 2.2482e-05 | deg |
tp | 2459126.763373635652 (2020-Oct-04.26337364) | 9.9855e-05 | TDB |
period | 1604.806529904801 4.39 | 1.7209e-05 4.712e-08 | d yr |
n | .2243261061639347 | 2.4056e-09 | deg/d |
Q | 3.10633221643829 | 2.2207e-08 | au |
|
| | Orbit Determination Parameters
Additional Information
|